East Saint Louis, IL

1:33 PM CST on February 21, 2017 (GMT -0600)
Saint Louis Downtown

Weather History for KCPS - October, 2013

Change the Weather History Date:

Wednesday, October 16, 2013

  Actual Average Record
Temperature  
Mean Temperature 52 °F -  
Max Temperature 59 °F 50 °F 89 °F (1950)
Min Temperature 43 °F 46 °F 35 °F (2001)
Degree Days  
Heating Degree Days 14    
Growing Degree Days 2 (Base 50)    
Moisture  
Dew Point 41 °F    
Average Humidity 70    
Maximum Humidity 97    
Minimum Humidity 51    
Precipitation  
Precipitation 0.00 in - - ()
Sea Level Pressure  
Sea Level Pressure 30.02 in    
Wind  
Wind Speed 8 mph (WNW)    
Max Wind Speed 13 mph    
Max Gust Speed 17 mph    
Visibility 10 miles    
Events      
Averages and records for this station are not official NWS values.
T = Trace of Precipitation, MM = Missing Value Source: NWS Daily Summary

Daily Weather History Graph

Daily Weather History Graph

Search for Another Location

Airport or City:

Trip Planner

Search our weather history database for the weather conditions in past years. The results will help you decide how hot, cold, wet, or windy it might be!

Date:

Astronomy

Oct. 16, 2013 Rise Set
Actual Time 7:10 AM CDT 6:20 PM CDT
Civil Twilight 6:44 AM CDT 6:47 PM CDT
Nautical Twilight 6:13 AM CDT 7:18 PM CDT
Astronomical Twilight 5:42 AM CDT 7:48 PM CDT
Moon 4:59 PM CDT (10/16) 4:40 AM CDT (10/16)
Length of Visible Light 12h 03m
Length of Day
11h 09m
Waxing Gibbous, 94% of the Moon is Illuminated
Oct 16
Waxing Gibbous
Oct 18
Full
Oct 26
Last Quarter
Nov 3
New
Nov 9
First Quarter

Hourly Weather History & Observations

Time (CDT) Temp. Windchill Dew Point Humidity Pressure Visibility Wind Dir Wind Speed Gust Speed Precip Events Conditions
12:53 AM 55.0 °F - 46.9 °F 74% 29.99 in 10.0 mi West 9.2 mph - N/A   Partly Cloudy
1:53 AM 54.0 °F - 44.1 °F 69% 30.00 in 10.0 mi NW 12.7 mph - N/A   Mostly Cloudy
2:53 AM 52.0 °F - 42.1 °F 69% 30.01 in 10.0 mi WNW 11.5 mph - N/A   Clear
3:53 AM 51.1 °F - 39.9 °F 66% 30.01 in 10.0 mi WNW 9.2 mph - N/A   Partly Cloudy
4:53 AM 48.9 °F - 41.0 °F 74% 30.01 in 10.0 mi West 5.8 mph - N/A   Scattered Clouds
5:53 AM 48.0 °F - 41.0 °F 77% 30.03 in 10.0 mi West 5.8 mph - N/A   Scattered Clouds
6:53 AM 46.0 °F 43.9 °F 39.9 °F 79% 30.04 in 10.0 mi West 4.6 mph - N/A   Clear
7:53 AM 46.0 °F 43.9 °F 41.0 °F 83% 30.03 in 10.0 mi West 4.6 mph - N/A   Partly Cloudy
8:53 AM 48.9 °F - 42.1 °F 77% 30.05 in 10.0 mi West 6.9 mph - N/A   Partly Cloudy
9:53 AM 52.0 °F - 39.9 °F 63% 30.05 in 10.0 mi WNW 11.5 mph - N/A   Partly Cloudy
10:53 AM 53.1 °F - 39.9 °F 61% 30.05 in 10.0 mi WNW 10.4 mph 17.3 mph N/A   Partly Cloudy
11:53 AM 55.0 °F - 39.9 °F 57% 30.06 in 10.0 mi WNW 9.2 mph - N/A   Clear
12:53 PM 55.9 °F - 41.0 °F 57% 30.04 in 10.0 mi West 6.9 mph - N/A   Clear
1:53 PM 59.0 °F - 41.0 °F 51% 30.01 in 10.0 mi WNW 8.1 mph 16.1 mph N/A   Clear
2:53 PM 57.9 °F - 41.0 °F 53% 30.00 in 10.0 mi NNW 8.1 mph 16.1 mph N/A   Partly Cloudy
3:53 PM 59.0 °F - 41.0 °F 51% 29.99 in 10.0 mi NW 4.6 mph - N/A   Clear
4:53 PM 57.9 °F - 41.0 °F 53% 29.99 in 10.0 mi NNW 8.1 mph - N/A   Clear
5:53 PM 55.9 °F - 41.0 °F 57% 29.99 in 10.0 mi WNW 6.9 mph - N/A   Clear
6:53 PM 52.0 °F - 42.1 °F 69% 29.99 in 10.0 mi North 5.8 mph - N/A   Clear
7:53 PM 51.1 °F - 41.0 °F 68% 30.01 in 10.0 mi North 6.9 mph - N/A   Clear
8:53 PM 46.0 °F - 41.0 °F 83% 30.03 in 10.0 mi Calm Calm - N/A   Clear
9:53 PM 44.1 °F - 41.0 °F 89% 30.04 in 10.0 mi Calm Calm - N/A   Clear
10:53 PM 44.1 °F - 42.1 °F 93% 30.03 in 10.0 mi Calm Calm - N/A   Clear
11:53 PM 43.0 °F - 42.1 °F 97% 30.02 in 9.0 mi Calm Calm - N/A   Mostly Cloudy